Regional Weather Roundup
Issued by NWS Albany, NY

Home | Current Version | Previous Version | Text Only | Print | Product List | Glossary On
Versions: 1 2 3 4 5 6 7 8 9 10 11 12 13 14 15 16 17 18 19 20 21 22 23 24 25 26 27
000
ASUS41 KALY 232310
RWRALY

NEW YORK STATE HOURLY WEATHER ROUNDUP
NATIONAL WEATHER SERVICE ALBANY NY
700 PM EDT THU MAR 23 2017

NOTE: "FAIR" INDICATES FEW OR NO CLOUDS BELOW 12,000 FEET WITH NO
SIGNIFICANT WEATHER AND/OR NO OBSTRUCTIONS TO VISIBILITY.

NYZ032-033-038>043-046>054-057>066-NYZ062>081-082-084-240000-
EAST


CITY           SKY/WX    TMP DP  RH WIND       PRES   REMARKS
ALBANY         PTCLDY    34   6  31 W12       30.49R WCI  25
GLENS FALLS    CLEAR     36   4  26 N6        30.44S WCI  31
POUGHKEEPSIE   CLEAR     38   0  20 CALM      30.48R
NEWBURGH       CLEAR     37   9  30 W9        30.49R WCI  31
MONTGOMERY     CLEAR     39   1  20 W5        30.47R
WHITE PLAINS   CLEAR     38   0  20 NW10      30.48R WCI  31
ISLIP          PTCLDY    37   1  22 W6        30.51R WCI  32
NEW YORK CITY  PTCLDY    44   4  19 W8G16     30.50S
CENTRAL PARK   CLEAR     41   0  18 MISG      30.53R
$$

NYZ005>009-017-018-044>046-055-056-240000-
CENTRAL


CITY           SKY/WX    TMP DP  RH WIND       PRES   REMARKS
FULTON         CLEAR     32  10  40 S5        30.47F WCI  27
SYRACUSE       PTCLDY    32   5  32 CALM      30.48F
ROME           CLEAR     31   9  39 SW7       30.49F WCI  24
ELMIRA         CLEAR     39   8  27 SE7       30.43S WCI  34
BINGHAMTON     CLEAR     31   5  33 S5        30.41S WCI  26
MONTICELLO     CLEAR     34   1  25 W5        30.45R WCI  30
$$

NYZ026>034-041>043-087-240000-
NORTH


CITY           SKY/WX    TMP DP  RH WIND       PRES   REMARKS
WATERTOWN      CLEAR     29   9  43 SW6       30.50R WCI  23
FORT DRUM      NOT AVBL
MASSENA        CLEAR     33   9  36 SW9       30.50R WCI  25
SARANAC LAKE   CLEAR     27   1  32 W5        30.36F WCI  22
PLATTSBURGH    CLEAR     33   0  24 CALM      30.45R
$$

NYZ001>004-010>016-019>021-085-240000-
WEST


CITY           SKY/WX    TMP DP  RH WIND       PRES   REMARKS
NIAGARA FALLS  CLEAR     40  -3  16 CALM      30.42S
BUFFALO        PTCLDY    39  12  33 N3        30.41F
DUNKIRK        CLEAR     33  18  53 NE7       30.39F WCI  27
JAMESTOWN      CLEAR     41   5  22 S3        30.34F
WELLSVILLE     CLEAR     40  -1  18 SW3       30.36F
ROCHESTER      PTCLDY    37   8  30 SE3       30.44F
PENN YAN       CLEAR     33  13  43 VRB5      30.43F WCI  29
$$

             KEY
       WCI = WIND CHILL INDEX
       VSB = VISIBILITY
       HX  = HEAT INDEX
$$




USA.gov is the U.S. government's official web portal to all federal, state and local government web resources and services.